Regional Weather Roundup
Issued by NWS

Home | Current Version | Previous Version | Graphics & Text | Print | Product List | Glossary On
Versions: 1 2 3 4 5 6 7 8 9 10 11 12 13 14 15 16 17 18 19 20 21 22 23 24 25 26 27 28 29 30 31 32 33 34 35 36 37 38 39 40 41 42 43 44 45 46 47 48 49 50
000
ASUS43 KIND 010209
RWRIN

WEATHER ROUNDUP FOR INDIANA
NATIONAL WEATHER SERVICE INDIANAPOLIS IN
1000 PM EDT MON AUG 31 2015

NOTE: "FAIR" INDICATES FEW OR NO CLOUDS BELOW 12,000 FEET WITH NO
SIGNIFICANT WEATHER AND/OR OBSTRUCTIONS TO VISIBILITY.

* - STATION DOES NOT REPORT WEATHER SUCH AS PRECIPITATION OR FOG.

+ - STATION NOT QUALITY CONTROLLED BY THE NATIONAL WEATHER SERVICE.
    USE DATA WITH CAUTION...ESPECIALLY DEWPOINT AND RELATIVE
    HUMIDITY OBSERVATIONS.

INZ001>003-010>013-019-020-010300-
NORTHWEST INDIANA

CITY           SKY/WX    TMP DP  RH WIND       PRES   REMARKS
KNOX *+        CLEAR     72  72 100 CALM      30.04R
LA PORTE +     PTCLDY   N/A N/A N/A CALM      30.06R FOG
MICHIGAN CITY+ FOG       70  70 100 CALM      30.05R VSB 1
MONTICELLO +   CLEAR     73  71  93 CALM      30.05R
RENSSELAER +   CLEAR     72  72 100 CALM      30.06R
VALPARAISO     PTCLDY    73  70  90 CALM      30.06R

$$

LMZ046-743>745-010300-
SOUTHERN LAKE MICHIGAN

STATION/POSITION TIME  TEMP    WIND        PRES    WAVE
                       AIR SEA DIR/SP/G            HT
                 (UTC) (F)     (DEG/KT/KT) (MB)    (FT)
BURNS HARBOR     0100   78     110/  7/  9 1017.3R
MICHIGAN CITY    0100   76      90/  4/  5   N/A
5NW MICH CITY    0200   74 72  130/  4/  6   N/A     0

$$

INZ004-005-014>016-021>024-010300-
NORTH CENTRAL INDIANA

CITY           SKY/WX    TMP DP  RH WIND       PRES   REMARKS
GOSHEN         CLEAR     72  68  87 CALM      30.06R
LOGANSPORT +   CLEAR     70  64  83 CALM      30.08R
PERU/GRISSOM   PTCLDY    73  68  86 SW6       30.06R
ROCHESTER +    CLEAR     79  72  78 S3        30.07R
SOUTH BEND     CLEAR     74  70  87 CALM      30.06R
WARSAW +       CLEAR     72  70  94 CALM      30.07R

$$

INZ006>009-017-018-025>027-010300-
NORTHEAST INDIANA

CITY           SKY/WX    TMP DP  RH WIND       PRES   REMARKS
ANGOLA *+      CLEAR     72  66  83 CALM      30.08R
AUBURN +       MOCLDY    72  68  88 CALM      30.08R
FORT WAYNE     PTCLDY    72  68  87 CALM      30.08R
HUNTINGTON +   CLOUDY    74  67  81 CALM      30.07R

$$

INZ028-029-035-036-043>045-051>053-010300-
WEST CENTRAL INDIANA

CITY           SKY/WX    TMP DP  RH WIND       PRES   REMARKS
CRAWFORDSVL +  CLEAR     67  66  96 CALM      30.08R
GREENCASTLE +  CLEAR     70  64  83 CALM      30.09R
LAFAYETTE      CLEAR     75  68  78 CALM      30.06R
TERRE HAUTE    CLEAR     75  68  78 S5        30.07R

$$

INZ030>032-037>040-046>048-054>057-064-065-010300-
CENTRAL INDIANA

CITY           SKY/WX    TMP DP  RH WIND       PRES   REMARKS
FRANKFORT +    CLEAR    N/A N/A N/A CALM      30.10R
GREENWOOD *+   CLEAR     72  66  83 CALM      30.10R
INDIANAPOLIS   PTCLDY    76  67  73 S5        30.08R
-EAGLE CREEK   PTCLDY    76  68  76 CALM      30.08R
KOKOMO *+      CLEAR     73  61  64 SW7       30.08R
MARION +       LGT RAIN  74  60  63 S6        30.09R
MT COMFORT *+  CLEAR     72  70  94 S3        30.10R
SHELBYVILLE    CLEAR     72  67  84 CALM      30.09R
ZIONSVILLE +   CLOUDY    74  68  81 S3        30.10R

$$

INZ033-034-041-042-049-050-058-059-010300-
EAST CENTRAL INDIANA

CITY           SKY/WX    TMP DP  RH WIND       PRES   REMARKS
MUNCIE         MOCLDY    74  66  76 S3        30.09R

$$

INZ060-061-067>069-081>083-085>088-010300-
SOUTHWEST INDIANA

CITY           SKY/WX    TMP DP  RH WIND       PRES   REMARKS
EVANSVILLE     CLEAR     77  68  73 CALM      30.08R
HUNTINGBURG *+ CLEAR     72  66  83 S3        30.09R
WASHINGTON +   CLEAR     72  68  87 CALM      30.07R

$$

INZ062-063-066-070>080-084-089>092-010300-
SOUTH CENTRAL AND SOUTHEAST INDIANA

CITY           SKY/WX    TMP DP  RH WIND       PRES   REMARKS
BLOOMINGTON    CLEAR     71  69  93 CALM      30.10R FOG
MADISON *+     CLEAR     70  64  83 CALM      30.12R
NORTH VERNON + PTCLDY    73  73 100 CALM      30.10R
SEYMOUR +      PTCLDY    73  68  83 CALM      30.09R

$$




USA.gov is the U.S. government's official web portal to all federal, state and local government web resources and services.